![]() |
EMODnet Physics ERDDAP
Easier access to scientific data |
log in|
Brought to you by EMODnet Physics |
| Dataset Title: | NDBC - Collection of dew point temperature (DEWT) TimeSeries - IN SITU MultiPointTimeSeriesObservation
|
| Institution: | NDBC (Dataset ID: TS_DEWT_NDBC) |
| Information: | Summary
| License
| FGDC
| ISO 19115
| Metadata
| Background
| Subset
| Data Access Form
| Make a graph
|
| Name | Last modified | Size | Description | |
|---|---|---|---|---|
| Parent Directory | - | - | ||
| 45002_TS_DEWT_011989.nc | 26-Oct-2024 19:03 | 1268842 | ||
| 45002_TS_DEWT_011991.nc | 26-Oct-2024 19:03 | 5467452 | ||
| 45002_TS_DEWT_011992.nc | 26-Oct-2024 19:03 | 449613 | ||
| 45002_TS_DEWT_012010.nc | 26-Oct-2024 19:03 | 449014 | ||
| 45002_TS_DEWT_021989.nc | 26-Oct-2024 19:03 | 449504 | ||
| 45002_TS_DEWT_021991.nc | 26-Oct-2024 19:03 | 435998 | ||
| 45002_TS_DEWT_021992.nc | 26-Oct-2024 19:03 | 449824 | ||
| 45002_TS_DEWT_022010.nc | 26-Oct-2024 19:03 | 450054 | ||
| 45002_TS_DEWT_022012.nc | 26-Oct-2024 19:03 | 449241 | ||
| 45002_TS_DEWT_031983.nc | 26-Oct-2024 19:03 | 433786 | ||
| 45002_TS_DEWT_031988.nc | 26-Oct-2024 19:03 | 429343 | ||
| 45002_TS_DEWT_031989.nc | 26-Oct-2024 19:03 | 449114 | ||
| 45002_TS_DEWT_031991.nc | 26-Oct-2024 19:03 | 449992 | ||
| 45002_TS_DEWT_031992.nc | 26-Oct-2024 19:03 | 450545 | ||
| 45002_TS_DEWT_031994.nc | 26-Oct-2024 19:03 | 429494 | ||
| 45002_TS_DEWT_031995.nc | 26-Oct-2024 19:03 | 449316 | ||
| 45002_TS_DEWT_031997.nc | 26-Oct-2024 19:03 | 440860 | ||
| 45002_TS_DEWT_031998.nc | 26-Oct-2024 19:03 | 438717 | ||
| 45002_TS_DEWT_031999.nc | 26-Oct-2024 19:03 | 429375 | ||
| 45002_TS_DEWT_032000.nc | 26-Oct-2024 19:03 | 443159 | ||
| 45002_TS_DEWT_032001.nc | 26-Oct-2024 19:04 | 449051 | ||
| 45002_TS_DEWT_032002.nc | 26-Oct-2024 19:04 | 1117180 | ||
| 45002_TS_DEWT_032004.nc | 26-Oct-2024 19:04 | 1113714 | ||
| 45002_TS_DEWT_032006.nc | 26-Oct-2024 19:04 | 995760 | ||
| 45002_TS_DEWT_032010.nc | 26-Oct-2024 19:04 | 1114786 | ||
| 45002_TS_DEWT_032011.nc | 26-Oct-2024 19:04 | 651959 | ||
| 45002_TS_DEWT_032012.nc | 26-Oct-2024 19:04 | 1113900 | ||
| 45002_TS_DEWT_032013.nc | 26-Oct-2024 19:04 | 1115939 | ||
| 45002_TS_DEWT_032016.nc | 26-Oct-2024 19:04 | 1112863 | ||
| 45002_TS_DEWT_041981.nc | 26-Oct-2024 19:04 | 4645935 | ||
| 45002_TS_DEWT_041982.nc | 26-Oct-2024 19:04 | 450716 | ||
| 45002_TS_DEWT_041983.nc | 26-Oct-2024 19:04 | 451225 | ||
| 45002_TS_DEWT_041984.nc | 26-Oct-2024 19:04 | 449128 | ||
| 45002_TS_DEWT_041985.nc | 26-Oct-2024 19:04 | 438415 | ||
| 45002_TS_DEWT_041987.nc | 26-Oct-2024 19:04 | 437125 | ||
| 45002_TS_DEWT_041988.nc | 26-Oct-2024 19:04 | 449428 | ||
| 45002_TS_DEWT_041991.nc | 26-Oct-2024 19:04 | 451225 | ||
| 45002_TS_DEWT_041992.nc | 26-Oct-2024 19:04 | 449687 | ||
| 45002_TS_DEWT_041993.nc | 26-Oct-2024 19:04 | 429841 | ||
| 45002_TS_DEWT_041994.nc | 26-Oct-2024 19:04 | 451788 | ||
| 45002_TS_DEWT_041995.nc | 26-Oct-2024 19:05 | 450648 | ||
| 45002_TS_DEWT_041996.nc | 26-Oct-2024 19:05 | 450610 | ||
| 45002_TS_DEWT_041997.nc | 26-Oct-2024 19:05 | 420394 | ||
| 45002_TS_DEWT_041998.nc | 26-Oct-2024 19:05 | 449870 | ||
| 45002_TS_DEWT_041999.nc | 26-Oct-2024 19:05 | 429813 | ||
| 45002_TS_DEWT_042000.nc | 26-Oct-2024 19:05 | 450015 | ||
| 45002_TS_DEWT_042001.nc | 26-Oct-2024 19:05 | 429840 | ||
| 45002_TS_DEWT_042002.nc | 26-Oct-2024 19:05 | 450250 | ||
| 45002_TS_DEWT_042003.nc | 26-Oct-2024 19:05 | 450891 | ||
| 45002_TS_DEWT_042004.nc | 26-Oct-2024 19:05 | 1265343 | ||
| 45002_TS_DEWT_042005.nc | 26-Oct-2024 19:05 | 1267752 | ||
| 45002_TS_DEWT_042006.nc | 26-Oct-2024 19:05 | 1144137 | ||
| 45002_TS_DEWT_042010.nc | 26-Oct-2024 19:05 | 1268092 | ||
| 45002_TS_DEWT_042011.nc | 26-Oct-2024 19:05 | 1266267 | ||
| 45002_TS_DEWT_042012.nc | 26-Oct-2024 19:05 | 1265586 | ||
| 45002_TS_DEWT_042013.nc | 26-Oct-2024 19:05 | 1264354 | ||
| 45002_TS_DEWT_042015.nc | 26-Oct-2024 19:05 | 494028 | ||
| 45002_TS_DEWT_042016.nc | 26-Oct-2024 19:05 | 5587470 | ||
| 45002_TS_DEWT_042017.nc | 26-Oct-2024 19:05 | 449084 | ||
| 45002_TS_DEWT_042022.nc | 26-Oct-2024 19:05 | 449276 | ||
| 45002_TS_DEWT_051980.nc | 26-Oct-2024 19:06 | 444730 | ||
| 45002_TS_DEWT_051981.nc | 26-Oct-2024 19:06 | 450060 | ||
| 45002_TS_DEWT_051982.nc | 26-Oct-2024 19:06 | 449412 | ||
| 45002_TS_DEWT_051983.nc | 26-Oct-2024 19:06 | 448807 | ||
| 45002_TS_DEWT_051984.nc | 26-Oct-2024 19:06 | 450097 | ||
| 45002_TS_DEWT_051985.nc | 26-Oct-2024 19:06 | 448777 | ||
| 45002_TS_DEWT_051987.nc | 26-Oct-2024 19:06 | 446098 | ||
| 45002_TS_DEWT_051988.nc | 26-Oct-2024 19:06 | 429479 | ||
| 45002_TS_DEWT_051989.nc | 26-Oct-2024 19:06 | 449436 | ||
| 45002_TS_DEWT_051990.nc | 26-Oct-2024 19:06 | 449630 | ||
| 45002_TS_DEWT_051991.nc | 26-Oct-2024 19:06 | 434278 | ||
| 45002_TS_DEWT_051992.nc | 26-Oct-2024 19:06 | 435305 | ||
| 45002_TS_DEWT_051993.nc | 26-Oct-2024 19:06 | 429498 | ||
| 45002_TS_DEWT_051994.nc | 26-Oct-2024 19:06 | 449592 | ||
| 45002_TS_DEWT_051995.nc | 26-Oct-2024 19:06 | 429061 | ||
| 45002_TS_DEWT_051996.nc | 26-Oct-2024 19:06 | 448912 | ||
| 45002_TS_DEWT_051997.nc | 26-Oct-2024 19:06 | 449385 | ||
| 45002_TS_DEWT_051998.nc | 26-Oct-2024 19:06 | 1111981 | ||
| 45002_TS_DEWT_051999.nc | 26-Oct-2024 19:06 | 1115350 | ||
| 45002_TS_DEWT_052000.nc | 26-Oct-2024 19:07 | 995549 | ||
| 45002_TS_DEWT_052001.nc | 26-Oct-2024 19:07 | 1114927 | ||
| 45002_TS_DEWT_052002.nc | 26-Oct-2024 19:07 | 1116487 | ||
| 45002_TS_DEWT_052003.nc | 26-Oct-2024 19:07 | 1115186 | ||
| 45002_TS_DEWT_052004.nc | 26-Oct-2024 19:07 | 1116501 | ||
| 45002_TS_DEWT_052005.nc | 26-Oct-2024 19:07 | 5614981 | ||
| 45002_TS_DEWT_052006.nc | 26-Oct-2024 19:07 | 5423277 | ||
| 45002_TS_DEWT_052007.nc | 26-Oct-2024 19:07 | 447328 | ||
| 45002_TS_DEWT_052008.nc | 26-Oct-2024 19:07 | 450924 | ||
| 45002_TS_DEWT_052009.nc | 26-Oct-2024 19:07 | 450732 | ||
| 45002_TS_DEWT_052010.nc | 26-Oct-2024 19:07 | 429623 | ||
| 45002_TS_DEWT_052011.nc | 26-Oct-2024 19:07 | 451430 | ||
| 45002_TS_DEWT_052012.nc | 26-Oct-2024 19:07 | 449453 | ||
| 45002_TS_DEWT_052013.nc | 26-Oct-2024 19:07 | 451236 | ||
| 45002_TS_DEWT_052014.nc | 26-Oct-2024 19:07 | 450599 | ||
| 45002_TS_DEWT_052015.nc | 26-Oct-2024 19:07 | 451610 | ||
| 45002_TS_DEWT_052016.nc | 26-Oct-2024 19:07 | 451250 | ||
| 45002_TS_DEWT_052017.nc | 26-Oct-2024 19:07 | 429835 | ||
| 45002_TS_DEWT_052018.nc | 26-Oct-2024 19:07 | 450677 | ||
| 45002_TS_DEWT_052019.nc | 26-Oct-2024 19:07 | 451540 | ||
| 45002_TS_DEWT_052022.nc | 26-Oct-2024 19:08 | 429686 | ||
| 45002_TS_DEWT_052023.nc | 26-Oct-2024 19:08 | 448055 | ||
| 45002_TS_DEWT_052025.nc | 01-Jun-2025 04:58 | 429835 | ||
| 45002_TS_DEWT_061980.nc | 26-Oct-2024 19:08 | 450007 | ||
| 45002_TS_DEWT_061981.nc | 26-Oct-2024 19:08 | 429439 | ||
| 45002_TS_DEWT_061982.nc | 26-Oct-2024 19:08 | 451446 | ||
| 45002_TS_DEWT_061983.nc | 26-Oct-2024 19:08 | 450552 | ||
| 45002_TS_DEWT_061984.nc | 26-Oct-2024 19:08 | 1263853 | ||
| 45002_TS_DEWT_061985.nc | 26-Oct-2024 19:08 | 1262760 | ||
| 45002_TS_DEWT_061986.nc | 26-Oct-2024 19:08 | 1142516 | ||
| 45002_TS_DEWT_061987.nc | 26-Oct-2024 19:08 | 1262989 | ||
| 45002_TS_DEWT_061988.nc | 26-Oct-2024 19:08 | 1263910 | ||
| 45002_TS_DEWT_061989.nc | 26-Oct-2024 19:08 | 1264999 | ||
| 45002_TS_DEWT_061990.nc | 26-Oct-2024 19:08 | 1018762 | ||
| 45002_TS_DEWT_061991.nc | 26-Oct-2024 19:08 | 5597817 | ||
| 45002_TS_DEWT_061992.nc | 26-Oct-2024 19:08 | 3575665 | ||
| 45002_TS_DEWT_061993.nc | 26-Oct-2024 19:08 | 429476 | ||
| 45002_TS_DEWT_061994.nc | 26-Oct-2024 19:08 | 449577 | ||
| 45002_TS_DEWT_061995.nc | 26-Oct-2024 19:08 | 450363 | ||
| 45002_TS_DEWT_061996.nc | 26-Oct-2024 19:08 | 446768 | ||
| 45002_TS_DEWT_061997.nc | 26-Oct-2024 19:08 | 448060 | ||
| 45002_TS_DEWT_061998.nc | 26-Oct-2024 19:08 | 447128 | ||
| 45002_TS_DEWT_061999.nc | 26-Oct-2024 19:08 | 450032 | ||
| 45002_TS_DEWT_062000.nc | 26-Oct-2024 19:08 | 448766 | ||
| 45002_TS_DEWT_062001.nc | 26-Oct-2024 19:09 | 435093 | ||
| 45002_TS_DEWT_062002.nc | 26-Oct-2024 19:09 | 449181 | ||
| 45002_TS_DEWT_062003.nc | 26-Oct-2024 19:09 | 450417 | ||
| 45002_TS_DEWT_062004.nc | 26-Oct-2024 19:09 | 443055 | ||
| 45002_TS_DEWT_062005.nc | 26-Oct-2024 19:09 | 449380 | ||
| 45002_TS_DEWT_062006.nc | 26-Oct-2024 19:09 | 450453 | ||
| 45002_TS_DEWT_062007.nc | 26-Oct-2024 19:09 | 449954 | ||
| 45002_TS_DEWT_062008.nc | 26-Oct-2024 19:09 | 448891 | ||
| 45002_TS_DEWT_062009.nc | 26-Oct-2024 19:09 | 448978 | ||
| 45002_TS_DEWT_062010.nc | 26-Oct-2024 19:09 | 449368 | ||
| 45002_TS_DEWT_062011.nc | 26-Oct-2024 19:09 | 450981 | ||
| 45002_TS_DEWT_062012.nc | 26-Oct-2024 19:09 | 450290 | ||
| 45002_TS_DEWT_062013.nc | 26-Oct-2024 19:09 | 449888 | ||
| 45002_TS_DEWT_062014.nc | 26-Oct-2024 19:09 | 450021 | ||
| 45002_TS_DEWT_062015.nc | 26-Oct-2024 19:09 | 448011 | ||
| 45002_TS_DEWT_062016.nc | 26-Oct-2024 19:09 | 449343 | ||
| 45002_TS_DEWT_062017.nc | 26-Oct-2024 19:09 | 450660 | ||
| 45002_TS_DEWT_062018.nc | 26-Oct-2024 19:09 | 450617 | ||
| 45002_TS_DEWT_062019.nc | 26-Oct-2024 19:09 | 450536 | ||
| 45002_TS_DEWT_062022.nc | 26-Oct-2024 19:09 | 450104 | ||
| 45002_TS_DEWT_062023.nc | 26-Oct-2024 19:09 | 449700 | ||
| 45002_TS_DEWT_062025.nc | 01-Jul-2025 05:02 | 448903 | ||
| 45002_TS_DEWT_071980.nc | 26-Oct-2024 19:10 | 450837 | ||
| 45002_TS_DEWT_071981.nc | 26-Oct-2024 19:10 | 450022 | ||
| 45002_TS_DEWT_071982.nc | 26-Oct-2024 19:10 | 450423 | ||
| 45002_TS_DEWT_071983.nc | 26-Oct-2024 19:10 | 449981 | ||
| 45002_TS_DEWT_071984.nc | 26-Oct-2024 19:10 | 451137 | ||
| 45002_TS_DEWT_071985.nc | 26-Oct-2024 19:10 | 445730 | ||
| 45002_TS_DEWT_071986.nc | 26-Oct-2024 19:10 | 480435 | ||
| 45002_TS_DEWT_071987.nc | 26-Oct-2024 19:10 | 444589 | ||
| 45002_TS_DEWT_071988.nc | 26-Oct-2024 19:10 | 436084 | ||
| 45002_TS_DEWT_071989.nc | 26-Oct-2024 19:10 | 471963 | ||
| 45002_TS_DEWT_071990.nc | 26-Oct-2024 19:10 | 438244 | ||
| 45002_TS_DEWT_071991.nc | 26-Oct-2024 19:10 | 472527 | ||
| 45002_TS_DEWT_071992.nc | 26-Oct-2024 19:10 | 431459 | ||
| 45002_TS_DEWT_071993.nc | 26-Oct-2024 19:10 | 477538 | ||
| 45002_TS_DEWT_071994.nc | 26-Oct-2024 19:10 | 479904 | ||
| 45002_TS_DEWT_071995.nc | 26-Oct-2024 19:10 | 472675 | ||
| 45002_TS_DEWT_071996.nc | 26-Oct-2024 19:10 | 475626 | ||
| 45002_TS_DEWT_071997.nc | 26-Oct-2024 19:10 | 424284 | ||
| 45002_TS_DEWT_071998.nc | 26-Oct-2024 19:10 | 427646 | ||
| 45002_TS_DEWT_071999.nc | 26-Oct-2024 19:10 | 478278 | ||
| 45002_TS_DEWT_072000.nc | 26-Oct-2024 19:10 | 476810 | ||
| 45002_TS_DEWT_072001.nc | 26-Oct-2024 19:10 | 434644 | ||
| 45002_TS_DEWT_072002.nc | 26-Oct-2024 19:10 | 451961 | ||
| 45002_TS_DEWT_072003.nc | 26-Oct-2024 19:10 | 474336 | ||
| 45002_TS_DEWT_072004.nc | 26-Oct-2024 19:10 | 479895 | ||
| 45002_TS_DEWT_072005.nc | 26-Oct-2024 19:11 | 478408 | ||
| 45002_TS_DEWT_072006.nc | 26-Oct-2024 19:11 | 442866 | ||
| 45002_TS_DEWT_072007.nc | 26-Oct-2024 19:11 | 469212 | ||
| 45002_TS_DEWT_072008.nc | 26-Oct-2024 19:11 | 478257 | ||
| 45002_TS_DEWT_072009.nc | 26-Oct-2024 19:11 | 469393 | ||
| 45002_TS_DEWT_072010.nc | 26-Oct-2024 19:11 | 454596 | ||
| 45002_TS_DEWT_072011.nc | 26-Oct-2024 19:11 | 440830 | ||
| 45002_TS_DEWT_072012.nc | 26-Oct-2024 19:11 | 470178 | ||
| 45002_TS_DEWT_072013.nc | 26-Oct-2024 19:11 | 436318 | ||
| 45002_TS_DEWT_072014.nc | 26-Oct-2024 19:11 | 481268 | ||
| 45002_TS_DEWT_072015.nc | 26-Oct-2024 19:11 | 469367 | ||
| 45002_TS_DEWT_072016.nc | 26-Oct-2024 19:11 | 627530 | ||
| 45002_TS_DEWT_072017.nc | 26-Oct-2024 19:11 | 478458 | ||
| 45002_TS_DEWT_072018.nc | 26-Oct-2024 19:11 | 444592 | ||
| 45002_TS_DEWT_072019.nc | 26-Oct-2024 19:11 | 482383 | ||
| 45002_TS_DEWT_072020.nc | 26-Oct-2024 19:11 | 466496 | ||
| 45002_TS_DEWT_072021.nc | 26-Oct-2024 19:11 | 422665 | ||
| 45002_TS_DEWT_072022.nc | 26-Oct-2024 19:12 | 470921 | ||
| 45002_TS_DEWT_072023.nc | 26-Oct-2024 19:12 | 479482 | ||
| 45002_TS_DEWT_072025.nc | 01-Aug-2025 05:19 | 453492 | ||
| 45002_TS_DEWT_081980.nc | 26-Oct-2024 19:12 | 479604 | ||
| 45002_TS_DEWT_081981.nc | 26-Oct-2024 19:12 | 479668 | ||
| 45002_TS_DEWT_081982.nc | 26-Oct-2024 19:12 | 455325 | ||
| 45002_TS_DEWT_081983.nc | 26-Oct-2024 19:12 | 470376 | ||
| 45002_TS_DEWT_081984.nc | 26-Oct-2024 19:12 | 445534 | ||
| 45002_TS_DEWT_081985.nc | 26-Oct-2024 19:12 | 475759 | ||
| 45002_TS_DEWT_081986.nc | 26-Oct-2024 19:12 | 481706 | ||
| 45002_TS_DEWT_081987.nc | 26-Oct-2024 19:12 | 629137 | ||
| 45002_TS_DEWT_081988.nc | 26-Oct-2024 19:12 | 454690 | ||
| 45002_TS_DEWT_081989.nc | 26-Oct-2024 19:12 | 418952 | ||
| 45002_TS_DEWT_081990.nc | 26-Oct-2024 19:12 | 463710 | ||
| 45002_TS_DEWT_081991.nc | 26-Oct-2024 19:12 | 478251 | ||
| 45002_TS_DEWT_081992.nc | 26-Oct-2024 19:12 | 442326 | ||
| 45002_TS_DEWT_081993.nc | 26-Oct-2024 19:12 | 454376 | ||
| 45002_TS_DEWT_081994.nc | 26-Oct-2024 19:12 | 467024 | ||
| 45002_TS_DEWT_081995.nc | 26-Oct-2024 19:12 | 443431 | ||
| 45002_TS_DEWT_081996.nc | 26-Oct-2024 19:12 | 444836 | ||
| 45002_TS_DEWT_081997.nc | 26-Oct-2024 19:13 | 480452 | ||
| 45002_TS_DEWT_081998.nc | 26-Oct-2024 19:13 | 473199 | ||
| 45002_TS_DEWT_081999.nc | 26-Oct-2024 19:13 | 430105 | ||
| 45002_TS_DEWT_082000.nc | 26-Oct-2024 19:13 | 466883 | ||
| 45002_TS_DEWT_082001.nc | 26-Oct-2024 19:13 | 630955 | ||
| 45002_TS_DEWT_082002.nc | 26-Oct-2024 19:13 | 467586 | ||
| 45002_TS_DEWT_082003.nc | 26-Oct-2024 19:13 | 476026 | ||
| 45002_TS_DEWT_082004.nc | 26-Oct-2024 19:13 | 438212 | ||
| 45002_TS_DEWT_082005.nc | 26-Oct-2024 19:13 | 472231 | ||
| 45002_TS_DEWT_082006.nc | 26-Oct-2024 19:13 | 626498 | ||
| 45002_TS_DEWT_082007.nc | 26-Oct-2024 19:13 | 419449 | ||
| 45002_TS_DEWT_082008.nc | 26-Oct-2024 19:13 | 435447 | ||
| 45002_TS_DEWT_082009.nc | 26-Oct-2024 19:13 | 478792 | ||
| 45002_TS_DEWT_082010.nc | 26-Oct-2024 19:13 | 422813 | ||
| 45002_TS_DEWT_082011.nc | 26-Oct-2024 19:13 | 477316 | ||
| 45002_TS_DEWT_082012.nc | 26-Oct-2024 19:13 | 627838 | ||
| 45002_TS_DEWT_082013.nc | 26-Oct-2024 19:13 | 468886 | ||
| 45002_TS_DEWT_082014.nc | 26-Oct-2024 19:13 | 440391 | ||
| 45002_TS_DEWT_082015.nc | 26-Oct-2024 19:13 | 480532 | ||
| 45002_TS_DEWT_082016.nc | 26-Oct-2024 19:13 | 464859 | ||
| 45002_TS_DEWT_082017.nc | 26-Oct-2024 19:13 | 480823 | ||
| 45002_TS_DEWT_082018.nc | 26-Oct-2024 19:13 | 464501 | ||
| 45002_TS_DEWT_082019.nc | 26-Oct-2024 19:13 | 471139 | ||
| 45002_TS_DEWT_082020.nc | 26-Oct-2024 19:14 | 468806 | ||
| 45002_TS_DEWT_082021.nc | 26-Oct-2024 19:14 | 477306 | ||
| 45002_TS_DEWT_082022.nc | 26-Oct-2024 19:14 | 452465 | ||
| 45002_TS_DEWT_082023.nc | 26-Oct-2024 19:14 | 450564 | ||
| 45002_TS_DEWT_082025.nc | 01-Sep-2025 05:05 | 629065 | ||
| 45002_TS_DEWT_091979.nc | 26-Oct-2024 19:14 | 459989 | ||
| 45002_TS_DEWT_091980.nc | 26-Oct-2024 19:14 | 461702 | ||
| 45002_TS_DEWT_091981.nc | 26-Oct-2024 19:14 | 479034 | ||
| 45002_TS_DEWT_091982.nc | 26-Oct-2024 19:14 | 466115 | ||
| 45002_TS_DEWT_091983.nc | 26-Oct-2024 19:14 | 480112 | ||
| 45002_TS_DEWT_091984.nc | 26-Oct-2024 19:14 | 474018 | ||
| 45002_TS_DEWT_091985.nc | 26-Oct-2024 19:14 | 441042 | ||
| 45002_TS_DEWT_091986.nc | 26-Oct-2024 19:14 | 450704 | ||
| 45002_TS_DEWT_091987.nc | 26-Oct-2024 19:14 | 629723 | ||
| 45002_TS_DEWT_091988.nc | 26-Oct-2024 19:14 | 451691 | ||
| 45002_TS_DEWT_091989.nc | 26-Oct-2024 19:14 | 468574 | ||
| 45002_TS_DEWT_091990.nc | 26-Oct-2024 19:14 | 482100 | ||
| 45002_TS_DEWT_091991.nc | 26-Oct-2024 19:14 | 481777 | ||
| 45002_TS_DEWT_091992.nc | 26-Oct-2024 19:14 | 441958 | ||
| 45002_TS_DEWT_091993.nc | 26-Oct-2024 19:14 | 614502 | ||
| 45002_TS_DEWT_091994.nc | 26-Oct-2024 19:14 | 444478 | ||
| 45002_TS_DEWT_091995.nc | 26-Oct-2024 19:14 | 428605 | ||
| 45002_TS_DEWT_091996.nc | 26-Oct-2024 19:14 | 474461 | ||
| 45002_TS_DEWT_091997.nc | 26-Oct-2024 19:15 | 474982 | ||
| 45002_TS_DEWT_091998.nc | 26-Oct-2024 19:15 | 474328 | ||
| 45002_TS_DEWT_091999.nc | 26-Oct-2024 19:15 | 434674 | ||
| 45002_TS_DEWT_092000.nc | 26-Oct-2024 19:15 | 475397 | ||
| 45002_TS_DEWT_092001.nc | 26-Oct-2024 19:15 | 431186 | ||
| 45002_TS_DEWT_092002.nc | 26-Oct-2024 19:15 | 475114 | ||
| 45002_TS_DEWT_092003.nc | 26-Oct-2024 19:15 | 429832 | ||
| 45002_TS_DEWT_092004.nc | 26-Oct-2024 19:15 | 464569 | ||
| 45002_TS_DEWT_092005.nc | 26-Oct-2024 19:15 | 424556 | ||
| 45002_TS_DEWT_092006.nc | 26-Oct-2024 19:15 | 482388 | ||
| 45002_TS_DEWT_092007.nc | 26-Oct-2024 19:15 | 467904 | ||
| 45002_TS_DEWT_092008.nc | 26-Oct-2024 19:15 | 479821 | ||
| 45002_TS_DEWT_092009.nc | 26-Oct-2024 19:15 | 443728 | ||
| 45002_TS_DEWT_092010.nc | 26-Oct-2024 19:15 | 433900 | ||
| 45002_TS_DEWT_092011.nc | 26-Oct-2024 19:15 | 447269 | ||
| 45002_TS_DEWT_092012.nc | 26-Oct-2024 19:15 | 448651 | ||
| 45002_TS_DEWT_092013.nc | 26-Oct-2024 19:15 | 480868 | ||
| 45002_TS_DEWT_092014.nc | 26-Oct-2024 19:16 | 452404 | ||
| 45002_TS_DEWT_092015.nc | 26-Oct-2024 19:16 | 478561 | ||
| 45002_TS_DEWT_092016.nc | 26-Oct-2024 19:16 | 477450 | ||
| 45002_TS_DEWT_092017.nc | 26-Oct-2024 19:16 | 464981 | ||
| 45002_TS_DEWT_092018.nc | 26-Oct-2024 19:16 | 432484 | ||
| 45002_TS_DEWT_092019.nc | 26-Oct-2024 19:16 | 479816 | ||
| 45002_TS_DEWT_092020.nc | 26-Oct-2024 19:16 | 474850 | ||
| 45002_TS_DEWT_092021.nc | 26-Oct-2024 19:16 | 481697 | ||
| 45002_TS_DEWT_092022.nc | 26-Oct-2024 19:16 | 628395 | ||
| 45002_TS_DEWT_092023.nc | 26-Oct-2024 19:16 | 629963 | ||
| 45002_TS_DEWT_092025.nc | 01-Oct-2025 04:37 | 419062 | ||
| 45002_TS_DEWT_101979.nc | 26-Oct-2024 19:16 | 478525 | ||
| 45002_TS_DEWT_101980.nc | 26-Oct-2024 19:16 | 468929 | ||
| 45002_TS_DEWT_101981.nc | 26-Oct-2024 19:16 | 479740 | ||
| 45002_TS_DEWT_101982.nc | 26-Oct-2024 19:16 | 439585 | ||
| 45002_TS_DEWT_101983.nc | 26-Oct-2024 19:16 | 447357 | ||
| 45002_TS_DEWT_101984.nc | 26-Oct-2024 19:16 | 419061 | ||
| 45002_TS_DEWT_101985.nc | 26-Oct-2024 19:16 | 628751 | ||
| 45002_TS_DEWT_101986.nc | 26-Oct-2024 19:16 | 456649 | ||
| 45002_TS_DEWT_101987.nc | 26-Oct-2024 19:16 | 481884 | ||
| 45002_TS_DEWT_101988.nc | 26-Oct-2024 19:16 | 598551 | ||
| 45002_TS_DEWT_101989.nc | 26-Oct-2024 19:16 | 612491 | ||
| 45002_TS_DEWT_101990.nc | 26-Oct-2024 19:17 | 426753 | ||
| 45002_TS_DEWT_101991.nc | 26-Oct-2024 19:17 | 627610 | ||
| 45002_TS_DEWT_101992.nc | 26-Oct-2024 19:17 | 480187 | ||
| 45002_TS_DEWT_101993.nc | 26-Oct-2024 19:17 | 469837 | ||
| 45002_TS_DEWT_101994.nc | 26-Oct-2024 19:17 | 445597 | ||
| 45002_TS_DEWT_101995.nc | 26-Oct-2024 19:17 | 464449 | ||
| 45002_TS_DEWT_101996.nc | 26-Oct-2024 19:17 | 479435 | ||
| 45002_TS_DEWT_101997.nc | 26-Oct-2024 19:17 | 473646 | ||
| 45002_TS_DEWT_101998.nc | 26-Oct-2024 19:17 | 627841 | ||
| 45002_TS_DEWT_101999.nc | 26-Oct-2024 19:17 | 469893 | ||
| 45002_TS_DEWT_102000.nc | 26-Oct-2024 19:17 | 461204 | ||
| 45002_TS_DEWT_102001.nc | 26-Oct-2024 19:17 | 481173 | ||
| 45002_TS_DEWT_102002.nc | 26-Oct-2024 19:17 | 455922 | ||
| 45002_TS_DEWT_102003.nc | 26-Oct-2024 19:17 | 479874 | ||
| 45002_TS_DEWT_102004.nc | 26-Oct-2024 19:17 | 477825 | ||
| 45002_TS_DEWT_102005.nc | 26-Oct-2024 19:17 | 477944 | ||
| 45002_TS_DEWT_102006.nc | 26-Oct-2024 19:17 | 450574 | ||
| 45002_TS_DEWT_102007.nc | 26-Oct-2024 19:17 | 480638 | ||
| 45002_TS_DEWT_102008.nc | 26-Oct-2024 19:17 | 467719 | ||
| 45002_TS_DEWT_102009.nc | 26-Oct-2024 19:18 | 478752 | ||
| 45002_TS_DEWT_102010.nc | 26-Oct-2024 19:18 | 474972 | ||
| 45002_TS_DEWT_102011.nc | 26-Oct-2024 19:18 | 480873 | ||
| 45002_TS_DEWT_102012.nc | 26-Oct-2024 19:18 | 626484 | ||
| 45002_TS_DEWT_102013.nc | 26-Oct-2024 19:18 | 627998 | ||
| 45002_TS_DEWT_102014.nc | 26-Oct-2024 19:18 | 452824 | ||
| 45002_TS_DEWT_102015.nc | 26-Oct-2024 19:18 | 428935 | ||
| 45002_TS_DEWT_102016.nc | 26-Oct-2024 19:18 | 439308 | ||
| 45002_TS_DEWT_102017.nc | 26-Oct-2024 19:18 | 477135 | ||
| 45002_TS_DEWT_102018.nc | 26-Oct-2024 19:18 | 435159 | ||
| 45002_TS_DEWT_102019.nc | 26-Oct-2024 19:18 | 435859 | ||
| 45002_TS_DEWT_102020.nc | 26-Oct-2024 19:18 | 431574 | ||
| 45002_TS_DEWT_102021.nc | 26-Oct-2024 19:18 | 425208 | ||
| 45002_TS_DEWT_102022.nc | 26-Oct-2024 19:18 | 481146 | ||
| 45002_TS_DEWT_102023.nc | 26-Oct-2024 19:18 | 477257 | ||
| 45002_TS_DEWT_102024.nc | 12-Jan-2025 20:47 | 478833 | ||
| 45002_TS_DEWT_102025.nc | 01-Nov-2025 06:48 | 479468 | ||
| 45002_TS_DEWT_111979.nc | 26-Oct-2024 19:18 | 430014 | ||
| 45002_TS_DEWT_111980.nc | 26-Oct-2024 19:18 | 477992 | ||
| 45002_TS_DEWT_111981.nc | 26-Oct-2024 19:18 | 474668 | ||
| 45002_TS_DEWT_111982.nc | 26-Oct-2024 19:18 | 475790 | ||
| 45002_TS_DEWT_111983.nc | 26-Oct-2024 19:18 | 449973 | ||
| 45002_TS_DEWT_111984.nc | 26-Oct-2024 19:18 | 629020 | ||
| 45002_TS_DEWT_111985.nc | 26-Oct-2024 19:19 | 628735 | ||
| 45002_TS_DEWT_111986.nc | 26-Oct-2024 19:19 | 450442 | ||
| 45002_TS_DEWT_111987.nc | 26-Oct-2024 19:19 | 627532 | ||
| 45002_TS_DEWT_111988.nc | 26-Oct-2024 19:19 | 474432 | ||
| 45002_TS_DEWT_111989.nc | 26-Oct-2024 19:19 | 460076 | ||
| 45002_TS_DEWT_111990.nc | 26-Oct-2024 19:19 | 448957 | ||
| 45002_TS_DEWT_111991.nc | 26-Oct-2024 19:19 | 475101 | ||
| 45002_TS_DEWT_111992.nc | 26-Oct-2024 19:19 | 445019 | ||
| 45002_TS_DEWT_111993.nc | 26-Oct-2024 19:19 | 479741 | ||
| 45002_TS_DEWT_111994.nc | 26-Oct-2024 19:19 | 450255 | ||
| 45002_TS_DEWT_111995.nc | 26-Oct-2024 19:19 | 460354 | ||
| 45002_TS_DEWT_111996.nc | 26-Oct-2024 19:19 | 630042 | ||
| 45002_TS_DEWT_111997.nc | 26-Oct-2024 19:19 | 450126 | ||
| 45002_TS_DEWT_111998.nc | 26-Oct-2024 19:19 | 448811 | ||
| 45002_TS_DEWT_111999.nc | 26-Oct-2024 19:19 | 480192 | ||
| 45002_TS_DEWT_112000.nc | 26-Oct-2024 19:19 | 457464 | ||
| 45002_TS_DEWT_112001.nc | 26-Oct-2024 19:19 | 449190 | ||
| 45002_TS_DEWT_112002.nc | 26-Oct-2024 19:19 | 627675 | ||
| 45002_TS_DEWT_112004.nc | 26-Oct-2024 19:20 | 469076 | ||
| 45002_TS_DEWT_112005.nc | 26-Oct-2024 19:20 | 457272 | ||
| 45002_TS_DEWT_112006.nc | 26-Oct-2024 19:20 | 445478 | ||
| 45002_TS_DEWT_112007.nc | 26-Oct-2024 19:20 | 471538 | ||
| 45002_TS_DEWT_112008.nc | 26-Oct-2024 19:20 | 445096 | ||
| 45002_TS_DEWT_112009.nc | 26-Oct-2024 19:20 | 481754 | ||
| 45002_TS_DEWT_112010.nc | 26-Oct-2024 19:20 | 451036 | ||
| 45002_TS_DEWT_112011.nc | 26-Oct-2024 19:20 | 475508 | ||
| 45002_TS_DEWT_112012.nc | 26-Oct-2024 19:20 | 463663 | ||
| 45002_TS_DEWT_112013.nc | 26-Oct-2024 19:20 | 473621 | ||
| 45002_TS_DEWT_112014.nc | 26-Oct-2024 19:20 | 442621 | ||
| 45002_TS_DEWT_112015.nc | 26-Oct-2024 19:20 | 482358 | ||
| 45002_TS_DEWT_112016.nc | 26-Oct-2024 19:20 | 474143 | ||
| 45002_TS_DEWT_112017.nc | 26-Oct-2024 19:20 | 477900 | ||
| 45002_TS_DEWT_112018.nc | 26-Oct-2024 19:20 | 441835 | ||
| 45002_TS_DEWT_112019.nc | 26-Oct-2024 19:20 | 480810 | ||
| 45002_TS_DEWT_112020.nc | 26-Oct-2024 19:21 | 481281 | ||
| 45002_TS_DEWT_112021.nc | 26-Oct-2024 19:21 | 454649 | ||
| 45002_TS_DEWT_112022.nc | 26-Oct-2024 19:21 | 442323 | ||
| 45002_TS_DEWT_112023.nc | 26-Oct-2024 19:21 | 629436 | ||
| 45002_TS_DEWT_112024.nc | 17-Jan-2025 14:33 | 592525 | ||
| 45002_TS_DEWT_112025.nc | 15-Nov-2025 11:50 | 474207 | ||
| 45002_TS_DEWT_121979.nc | 26-Oct-2024 19:21 | 461398 | ||
| 45002_TS_DEWT_121980.nc | 26-Oct-2024 19:21 | 447912 | ||
| 45002_TS_DEWT_121982.nc | 26-Oct-2024 19:21 | 629314 | ||
| 45002_TS_DEWT_121983.nc | 26-Oct-2024 19:21 | 474552 | ||
| 45002_TS_DEWT_121984.nc | 26-Oct-2024 19:21 | 461277 | ||
| 45002_TS_DEWT_121990.nc | 26-Oct-2024 19:21 | 446823 | ||
| 45002_TS_DEWT_121991.nc | 26-Oct-2024 19:21 | 474994 | ||
| 45002_TS_DEWT_122007.nc | 26-Oct-2024 19:21 | 481409 | ||
| 45002_TS_DEWT_122009.nc | 26-Oct-2024 19:21 | 434521 | ||
| 45002_TS_DEWT_122010.nc | 26-Oct-2024 19:21 | 459972 | ||
| 45002_TS_DEWT_122011.nc | 26-Oct-2024 19:21 | 477737 | ||
| 45002_TS_DEWT_122013.nc | 26-Oct-2024 19:22 | 479584 | ||
| 45002_TS_DEWT_122014.nc | 26-Oct-2024 19:22 | 464977 | ||
| 45002_TS_DEWT_122020.nc | 26-Oct-2024 19:22 | 475391 | ||
| 45002_TS_DEWT_122022.nc | 26-Oct-2024 19:22 | 479463 | ||
| 45002_TS_DEWT_122023.nc | 28-Dec-2024 20:00 | 445231 | ||
| 45002_TS_DEWT_122024.nc | 19-Jan-2025 22:34 | 480762 | ||